Date String (YYYY-MM-DD hh:mm:ss) UTC,Instrument flags,Ambient pressure (hPa),Sample flow (lpm),Bypass flow (lpm),Sample temperature (°C),Ambient temperature (°C),ASC tube jacket temperature (°C),LED temperature (°C),Box temperature (°C),Sample RH (%),Span deviation,Mass concentration (μg/m³),Mass concentration (μg/m³),Mass concentration (μg/m³)
DateTimeUTC,F1_M11,P_M11,Q1_M11,Q2_M11,T1_M11,T2_M11,T3_M11,T4_M11,T5_M11,U1_M11,ZSPAN_M11,X0_M11,X2_M11,X1_M11
2021-11-03 23:00:00,,0830.9,4.99,0.00,29.0,28.3,00.0,38.0,30.8,15.0,0000.0,0006.71,0003.92,0003.70
2021-11-03 23:01:00,,0830.9,4.98,0.00,29.0,28.3,00.0,38.0,30.8,14.9,0000.0,0007.63,0003.93,0003.70
2021-11-03 23:02:00,,0830.9,5.00,0.00,29.0,28.3,00.0,38.0,30.8,14.8,0000.0,0007.94,0003.97,0003.70
2021-11-03 23:03:00,,0830.9,5.01,0.00,29.0,28.3,00.0,38.0,30.8,14.7,0000.0,0008.55,0003.96,0003.70
2021-11-03 23:04:00,,0830.9,5.00,0.00,29.0,28.3,00.0,38.0,30.8,14.7,-000.0,0009.00,0003.97,0003.69
2021-11-03 23:05:00,,0830.9,4.99,0.00,29.0,28.3,00.0,38.0,30.8,14.7,0000.4,0009.57,0003.96,0003.67
2021-11-03 23:06:00,,0830.9,5.00,0.00,29.0,28.3,00.0,38.0,30.8,14.8,-000.6,0009.89,0003.96,0003.68
2021-11-03 23:07:00,,0831.0,4.99,0.00,29.0,28.3,00.0,38.0,30.8,14.6,-000.8,0009.94,0003.97,0003.68
2021-11-03 23:08:00,,0830.9,5.00,0.00,29.0,28.3,00.0,38.0,30.8,14.7,-000.8,0009.95,0003.97,0003.69
2021-11-03 23:09:00,,0830.9,5.00,0.00,29.0,28.4,00.0,38.0,30.8,14.8,0000.0,0009.99,0003.98,0003.69
2021-11-03 23:10:00,,0830.9,5.01,0.00,29.0,28.4,00.0,38.0,30.8,14.6,0000.0,0010.04,0003.98,0003.69
2021-11-03 23:11:00,,0830.9,4.99,0.00,29.1,28.4,00.0,38.0,30.8,14.5,0000.0,0009.93,0003.95,0003.68
2021-11-03 23:12:00,,0830.9,4.99,0.00,29.1,28.4,00.0,38.1,30.9,14.6,0000.0,0010.52,0003.97,0003.69
2021-11-03 23:13:00,,0830.9,5.00,0.00,29.1,28.4,00.0,38.1,30.9,14.6,-000.2,0010.40,0003.95,0003.69
2021-11-03 23:14:00,,0830.9,5.00,0.00,29.1,28.5,00.0,38.1,30.9,14.7,-000.6,0009.88,0003.94,0003.69
2021-11-03 23:15:00,,0830.9,4.99,0.00,29.1,28.5,00.0,38.1,30.9,14.7,0000.0,0009.63,0003.93,0003.68
2021-11-03 23:16:00,,0830.9,5.00,0.00,29.1,28.5,00.0,38.1,30.9,14.7,0000.0,0009.01,0003.95,0003.69
2021-11-03 23:17:00,,0830.9,5.01,0.00,29.1,28.5,00.0,38.1,30.9,14.6,0000.0,0008.56,0003.96,0003.71
2021-11-03 23:18:00,,0830.9,5.00,0.00,29.1,28.5,00.0,38.1,30.9,14.7,0000.0,0008.59,0003.98,0003.72
2021-11-03 23:19:00,,0830.9,5.00,0.00,29.1,28.4,00.0,38.1,30.9,14.6,0000.0,0009.07,0003.96,0003.71
2021-11-03 23:20:00,,0830.9,5.00,0.00,29.1,28.4,00.0,38.1,30.9,14.6,0000.0,0009.64,0003.98,0003.69
2021-11-03 23:21:00,,0830.9,5.01,0.00,29.1,28.4,00.0,38.1,30.9,14.7,0000.0,0009.59,0003.96,0003.67
2021-11-03 23:22:00,,0830.9,4.98,0.00,29.1,28.4,00.0,38.1,30.9,14.7,0000.0,0009.78,0003.96,0003.65
2021-11-03 23:23:00,,0830.9,5.00,0.00,29.1,28.4,00.0,38.1,30.9,14.8,0000.0,0009.36,0003.95,0003.63
2021-11-03 23:24:00,,0830.9,5.00,0.00,29.1,28.4,00.0,38.1,30.9,14.8,0000.0,0009.01,0003.93,0003.62
2021-11-03 23:25:00,,0830.9,5.01,0.00,29.1,28.4,00.0,38.1,30.9,14.8,0000.0,0009.02,0003.93,0003.62
2021-11-03 23:26:00,,0830.9,5.00,0.00,29.1,28.4,00.0,38.1,30.9,14.4,0000.0,0009.87,0003.95,0003.62
2021-11-03 23:27:00,,0830.9,4.99,0.00,29.1,28.5,00.0,38.1,30.9,14.6,0000.0,0010.97,0003.97,0003.61
2021-11-03 23:28:00,,0830.9,5.00,0.00,29.1,28.5,00.0,38.2,30.9,14.7,0000.0,0011.92,0004.00,0003.60
2021-11-03 23:29:00,,0831.0,5.01,0.00,29.2,28.5,00.0,38.2,31.0,14.6,0000.0,0011.93,0003.98,0003.58
2021-11-03 23:30:00,,0830.9,5.00,0.00,29.2,28.5,00.0,38.2,31.0,14.7,0000.0,0011.46,0003.98,0003.57
2021-11-03 23:31:00,,0830.9,5.00,0.00,29.2,28.6,00.0,38.2,31.0,14.7,0000.0,0010.79,0003.95,0003.56
2021-11-03 23:32:00,,0830.9,5.00,0.00,29.2,28.6,00.0,38.2,31.0,14.6,0000.0,0010.97,0003.94,0003.55
2021-11-03 23:33:00,,0831.0,5.00,0.00,29.2,28.6,00.0,38.2,31.0,14.6,0000.0,0011.24,0003.93,0003.55
2021-11-03 23:34:00,,0830.9,4.99,0.00,29.2,28.6,00.0,38.2,31.0,14.6,0000.0,0010.67,0003.93,0003.56
2021-11-03 23:35:00,,0831.0,5.00,0.00,29.3,28.6,00.0,38.2,31.1,14.6,0000.0,0010.66,0003.93,0003.55
2021-11-03 23:36:00,,0830.9,4.99,0.00,29.3,28.6,00.0,38.2,31.0,14.6,0000.0,0010.77,0003.93,0003.56
2021-11-03 23:37:00,,0830.9,5.00,0.00,29.3,28.6,00.0,38.2,31.1,14.5,0000.0,0010.19,0003.93,0003.56
2021-11-03 23:38:00,,0831.0,5.00,0.00,29.3,28.7,00.0,38.2,31.1,14.6,0000.0,0010.21,0003.89,0003.55
2021-11-03 23:39:00,,0831.0,4.99,0.00,29.3,28.7,00.0,38.2,31.0,14.6,0000.0,0009.19,0003.86,0003.54
2021-11-03 23:40:00,,0831.0,5.01,0.00,29.3,28.6,00.0,38.2,31.0,14.6,0000.0,0009.37,0003.87,0003.55
2021-11-03 23:41:00,,0831.0,5.00,0.00,29.3,28.6,00.0,38.3,31.1,14.6,0000.0,0009.41,0003.88,0003.56
2021-11-03 23:42:00,,0831.0,5.00,0.00,29.3,28.7,00.0,38.3,31.1,14.5,0000.0,0009.58,0003.93,0003.58
2021-11-03 23:43:00,,0831.0,5.00,0.00,29.3,28.6,00.0,38.3,31.1,14.6,0000.0,0010.12,0003.95,0003.60
2021-11-03 23:44:00,,0830.9,5.00,0.00,29.3,28.6,00.0,38.3,31.1,14.6,0000.0,0010.07,0003.96,0003.61
2021-11-03 23:45:00,,0830.9,5.00,0.00,29.3,28.6,00.0,38.3,31.1,14.6,0000.0,0009.30,0003.97,0003.61
2021-11-03 23:46:00,,0830.9,5.00,0.00,29.3,28.6,00.0,38.3,31.1,14.6,0000.0,0009.27,0003.96,0003.61
2021-11-03 23:47:00,,0830.9,5.00,0.00,29.3,28.6,00.0,38.3,31.1,14.5,0000.0,0009.67,0003.97,0003.61
2021-11-03 23:48:00,,0830.9,5.00,0.00,29.3,28.6,00.0,38.3,31.1,14.5,0000.0,0009.79,0003.97,0003.61
2021-11-03 23:49:00,,0830.9,4.99,0.00,29.3,28.7,00.0,38.3,31.1,14.5,0000.0,0009.35,0004.00,0003.61
2021-11-03 23:50:00,,0830.9,5.01,0.00,29.3,28.7,00.0,38.3,31.1,14.4,0000.0,0008.83,0003.99,0003.62
2021-11-03 23:51:00,,0830.9,5.00,0.00,29.3,28.6,00.0,38.3,31.1,14.4,0000.0,0009.45,0003.98,0003.62
2021-11-03 23:52:00,,0830.9,4.99,0.00,29.3,28.7,00.0,38.3,31.1,14.4,0000.0,0009.68,0003.98,0003.63
2021-11-03 23:53:00,,0831.0,4.99,0.00,29.4,28.7,00.0,38.3,31.2,14.3,0000.0,0009.60,0003.95,0003.63
2021-11-03 23:54:00,,0831.0,4.99,0.00,29.4,28.7,00.0,38.4,31.2,14.3,0000.0,0009.04,0003.94,0003.64
2021-11-03 23:55:00,,0831.0,5.01,0.00,29.4,28.7,00.0,38.4,31.2,14.3,0000.0,0008.70,0003.93,0003.65
2021-11-03 23:56:00,,0831.0,5.01,0.00,29.4,28.7,00.0,38.4,31.2,14.3,0000.0,0008.79,0003.94,0003.68
2021-11-03 23:57:00,,0831.0,5.01,0.00,29.4,28.7,00.0,38.4,31.2,14.3,0000.0,0008.87,0003.99,0003.70
2021-11-03 23:58:00,,0831.0,4.99,0.00,29.4,28.7,00.0,38.4,31.2,14.3,0000.0,0008.67,0004.03,0003.72
2021-11-03 23:59:00,,0831.0,4.99,0.00,29.4,28.7,00.0,38.4,31.2,14.3,0000.0,0008.65,0004.04,0003.74
